Wind_Speed
2 6 3 1 2 2 4 4 5 6 6 7 7 7 7 6 7 5 6 6 5 4 5 3 7 8 12 19 20 19 18 13
3 4 3 1 1 2 3 4 5 6 6 6 7 7 7 7 6 5 5 5 3 4 6 5 7 8 10 11 13 10 11 9
6 7 4 3 1 0 1 2 4 5 5 7 8 8 8 7 7 6 6 4 2 3 4 7 9 11 14 15 15 14 15 12
5 6 6 6 3 2 0 1 2 4 5 7 8 9 9 8 6 6 7 5 4 3 6 7 9 13 16 15 15 15 13 11
3 4 7 8 4 4 2 1 2 3 4 7 8 9 8 8 7 8 6 5 6 7 8 9 10 11 12 12 14 14 12 12
5 5 6 8 7 5 4 2 1 2 4 6 7 8 8 9 9 8 8 8 8 8 9 10 12 12 13 13 13 12 14 13
6 10 11 12 10 8 6 5 3 1 2 3 5 7 9 10 11 10 10 10 11 12 12 13 14 11 11 13 15 15 15 15
8 15 14 14 12 12 10 7 5 3 1 3 4 5 8 9 11 12 13 13 15 15 15 17 16 14 13 13 13 13 12 11
12 13 14 14 14 12 12 11 7 5 3 3 2 4 5 6 8 10 11 12 13 14 14 15 15 12 10 10 10 11 11 10
15 16 17 17 17 15 15 13 11 10 7 5 5 3 3 3 4 6 7 9 10 11 11 11 11 11 10 9 10 10 9 8
17 15 18 19 19 17 16 14 13 11 9 7 6 6 4 3 3 2 4 6 7 8 9 9 9 11 10 9 8 9 8 7
20 20 19 21 21 19 16 16 11 10 9 7 7 6 6 5 3 3 4 4 5 5 6 6 6 6 7 10 10 9 10 8
20 19 19 20 22 20 19 13 14 13 12 10 8 7 7 7 7 6 5 4 5 6 7 7 7 6 7 7 8 9 9 10
20 20 19 21 21 20 17 14 16 15 16 15 12 12 10 9 9 9 9 9 8 8 9 8 8 8 8 8 8 8 9 9
17 19 21 22 23 20 15 14 16 16 16 16 16 15 14 12 11 11 11 12 12 13 14 12 12 11 11 11 10 11 11 11
19 20 21 21 22 20 19 17 18 18 17 18 17 17 16 16 15 15 14 14 15 15 13 14 15 13 12 12 12 11 10 12
19 19 18 18 20 19 20 20 20 21 21 21 20 20 19 18 18 19 18 17 18 17 17 15 15 13 10 12 14 12 13 16
22 22 19 18 19 18 20 22 23 24 23 22 22 22 22 22 22 23 18 19 21 22 21 20 18 17 15 14 14 14 15 18
18 19 19 18 18 15 18 22 25 24 24 23 23 22 23 23 24 23 23 23 24 23 23 23 23 22 20 18 16 18 20 24
14 17 18 18 18 14 17 21 23 23 23 24 23 23 23 22 23 23 24 26 27 25 22 21 21 22 23 21 27 27 26 27
Wind_Direction
186 167 162 114 52 26 28 23 359 5 12 12 21 20 23 22 32 31 49 51 67 80 94 123 196 185 176 197 192 193 184 184
147 184 179 132 25 44 20 17 18 17 16 34 28 28 30 30 24 36 55 32 37 84 83 111 159 187 200 178 173 174 175 179
155 180 220 190 234 82 23 15 33 25 23 34 33 35 39 31 27 38 60 43 20 90 111 115 123 140 174 177 160 153 160 168
148 180 205 219 177 258 287 329 53 43 38 42 42 46 40 39 41 51 61 52 64 95 103 117 119 132 131 138 144 157 161 168
146 169 162 184 205 183 248 310 45 53 49 48 41 46 52 56 63 73 83 93 87 89 92 107 114 123 130 136 140 146 150 151
180 195 188 184 184 197 194 208 3 71 73 69 56 56 63 69 73 86 97 101 112 110 105 112 121 126 132 134 133 141 137 134
185 190 211 210 193 185 204 186 174 152 67 78 72 71 75 83 91 95 96 104 115 118 115 110 106 113 129 135 136 137 132 127
191 193 201 202 196 183 179 178 181 170 89 53 92 82 79 89 95 97 99 108 109 111 117 111 111 119 124 130 130 132 129 125
183 179 189 188 187 178 172 171 177 177 158 149 89 102 94 94 96 102 107 112 113 115 114 115 113 122 124 129 136 134 127 132
187 178 175 181 177 177 176 176 180 182 182 180 173 153 131 111 101 108 116 114 114 117 124 129 127 131 133 143 141 129 135 152
174 175 173 175 180 182 185 186 190 191 185 181 176 171 165 136 127 128 143 140 134 131 137 144 153 162 162 158 161 163 163 161
175 179 184 177 181 189 195 206 196 191 188 188 182 180 179 182 188 167 164 167 159 153 151 161 174 183 182 178 189 190 182 182
174 182 182 186 188 192 205 203 198 195 199 200 198 195 197 195 192 203 206 204 194 187 184 183 188 199 204 208 207 202 203 193
186 184 188 193 200 203 209 202 203 204 205 206 207 210 209 211 212 205 209 216 221 229 234 224 221 218 216 212 217 222 216 214
192 192 197 202 205 212 211 209 211 216 216 214 216 216 221 221 218 224 232 228 227 231 238 244 247 244 238 228 222 224 216 210
209 211 212 210 216 216 214 212 211 218 222 223 225 227 228 233 237 238 240 242 244 246 249 246 253 261 259 249 243 236 228 212
220 229 231 222 223 222 222 221 219 219 221 225 229 231 235 240 245 247 248 246 248 248 248 248 250 249 251 251 245 235 223 210
234 233 232 233 233 226 224 225 226 230 233 232 232 235 238 240 244 253 257 257 253 253 252 253 253 246 238 234 229 224 205 222
248 241 242 236 239 235 231 229 230 233 239 240 240 241 244 246 250 255 257 257 257 257 255 253 252 250 242 229 217 209 214 226
255 245 235 229 236 247 235 230 230 232 235 241 245 248 250 253 257 258 260 262 265 268 262 260 255 249 242 233 228 222 215 219
Height
806 805 805 804 805 805 805 805 804 803 801 799 797 795 793 792 791 791 790 790 790 792 793 793 795 796 798 802 805 809 812 814
807 806 805 804 804 805 804 804 803 803 802 799 797 796 795 794 793 792 790 791 792 793 792 793 794 795 797 801 804 806 809 813
805 806 805 805 804 804 804 803 803 802 802 800 798 796 795 794 793 792 792 793 794 794 794 792 793 795 797 801 802 805 808 811
803 806 805 805 805 804 804 803 803 803 802 800 798 797 796 795 794 794 793 795 796 795 794 794 795 797 798 800 801 805 809 811
802 803 805 805 805 805 805 806 805 804 804 802 800 798 797 796 795 794 795 797 797 796 796 796 798 799 801 803 805 807 810 810
800 801 803 804 804 806 806 807 807 806 805 804 802 801 799 798 797 797 798 797 799 799 799 800 800 802 803 805 806 809 810 812
794 797 799 801 802 804 806 807 808 808 808 807 805 804 803 802 801 801 801 801 800 801 802 802 803 805 806 808 809 811 812 813
788 791 795 798 801 801 803 806 808 808 809 809 808 807 806 805 804 803 802 803 803 803 805 805 806 808 809 811 812 813 815 816
781 786 791 795 799 802 802 804 807 808 808 809 810 810 809 808 807 807 807 806 805 806 807 807 808 809 811 813 814 815 816 818
778 781 785 792 796 800 801 803 805 806 807 808 809 811 811 811 811 810 809 809 809 809 809 810 811 812 813 814 816 816 818 820
775 780 782 787 792 797 800 801 802 804 805 807 807 808 811 812 812 813 812 812 812 813 813 813 814 814 814 815 816 817 819 819
773 776 780 783 788 792 796 797 800 802 803 805 806 807 808 810 812 813 814 814 814 814 815 815 816 816 816 816 816 817 817 818
771 775 778 782 785 788 792 796 798 800 802 803 805 807 808 809 810 811 813 815 815 815 815 816 816 817 818 818 818 817 817 817
768 772 776 778 782 785 788 793 796 798 799 801 803 805 806 808 810 809 810 812 814 815 816 815 815 815 816 817 817 818 819 820
770 771 773 776 778 781 785 789 792 795 798 800 801 802 804 805 806 808 809 810 811 811 812 814 814 815 816 817 817 817 817 818
768 768 770 773 775 778 781 783 786 790 793 796 798 799 800 802 803 804 805 807 808 808 810 811 811 813 814 815 816 816 817 818
763 766 768 770 772 775 777 779 781 783 786 789 792 794 796 798 800 800 801 802 803 804 805 806 806 807 809 810 812 814 815 816
757 759 763 766 768 769 772 774 776 777 779 782 785 788 790 792 793 794 796 797 797 798 798 799 802 802 803 804 806 808 811 811
754 758 760 761 763 766 766 768 769 771 774 777 779 781 784 786 787 789 790 791 791 792 793 794 795 797 798 799 800 801 803 803
751 753 756 757 758 760 762 762 763 765 768 771 774 776 778 780 782 783 784 784 783 786 788 790 791 791 792 794 793 792 791 792